Terminal Aerodrome Forecast
Issued by NWS

Home | Current Version | Previous Version | Graphics & Text | Print | Product List | Glossary On
Versions: 1 2 3 4 5 6 7 8 9 10 11 12 13 14 15
000
FTUS43 KIWX 230500
TAFSBN
TAF
KSBN 230534Z 2306/2406 00000KT P6SM SKC
      TEMPO 2309/2313 5SM BR SCT010
     FM231400 20006KT P6SM SCT025
     FM232300 18004KT P6SM BKN250=

USA.gov is the U.S. government's official web portal to all federal, state and local government web resources and services.